Location: Pella
(41.4080°N, 92.9160°W)
Time: 10:32:38
(UTC-05:00)

ASTRO E2 - Visible Passes

Search period start: 01 May 2016 00:00
Search period end: 11 May 2016 00:00
Orbit: 518 x 525 km, 31.4° (Epoch: 01 May)

Date Brightness Start Highest point End Pass type
(mag) Time Alt. Az. Time Alt. Az. Time Alt. Az.
01 May 4.4 21:04:31 10° SW 21:07:21 19° S 21:09:12 14° SE visible
02 May 4.4 20:48:35 10° SW 20:51:29 19° S 20:54:20 10° SE visible
02 May 5.2 22:28:50 10° SW 22:29:21 12° SW 22:29:21 12° SW visible
03 May 4.9 22:13:06 10° SW 22:14:25 14° SSW 22:14:25 14° SSW visible
04 May 4.8 21:57:25 10° SW 21:59:26 14° SSW 21:59:26 14° SSW visible
05 May 4.8 21:41:47 10° SW 21:43:45 13° SSW 21:44:25 13° S visible
06 May 5.0 21:26:15 10° SW 21:27:51 12° SSW 21:29:24 10° S visible
07 May 5.1 21:10:58 10° SSW 21:11:56 11° SSW 21:12:53 10° S visible
